Regional Weather Roundup
Issued by NWS

Home | Current Version | Previous Version | Text Only | Print | Product List | Glossary Off
Versions: 1 2 3 4 5 6 7 8 9 10 11 12 13 14 15 16 17 18 19 20 21 22 23 24 25 26 27 28 29 30 31 32 33 34 35 36 37 38 39 40 41 42 43 44 45 46 47 48 49 50

000
ASUS43 KIND 242309
RWRIN

WEATHER ROUNDUP FOR INDIANA
NATIONAL WEATHER SERVICE INDIANAPOLIS IN
600 PM EST WED DEC 24 2014

NOTE: "FAIR" INDICATES FEW OR NO CLOUDS BELOW 12,000 FEET WITH NO
SIGNIFICANT WEATHER AND/OR OBSTRUCTIONS TO VISIBILITY.

* - STATION DOES NOT REPORT WEATHER SUCH AS PRECIPITATION OR FOG.

+ - STATION NOT QUALITY CONTROLLED BY THE NATIONAL WEATHER SERVICE.
    USE DATA WITH CAUTION...ESPECIALLY DEWPOINT AND RELATIVE
    HUMIDITY OBSERVATIONS.

INZ001>003-010>013-019-020-250000-
NORTHWEST INDIANA

CITY           SKY/WX    TMP DP  RH WIND       PRES   REMARKS
GARY /AIRPORT/ RAIN      39  34  81 W14       29.51S
KNOX *+        CLOUDY    36  32  85 W15       29.50R
LA PORTE +     LGT RAIN  37  37 100 W7        29.50R
MICHIGAN CITY+ LGT RAIN  36  34  93 W7        29.50R
MONTICELLO +   LGT RAIN  36  35  96 W12G17    29.54R
RENSSELAER +   LGT RAIN  36  36 100 W14G21    29.54R
VALPARAISO     LGT RAIN  36  35  96 W9        29.51R

$$

LMZ046-743>745-250000-
SOUTHERN LAKE MICHIGAN

STATION/POSITION TIME  TEMP WIND        PRES
                       AIR  DIR/SP/G
                 (UTC) (F)  (DEG/KT/KT) (MB)
MICHIGAN CITY    2300   36  230/ 18/ 20   N/A

$$

INZ004-005-014>016-021>024-250000-
NORTH CENTRAL INDIANA

CITY           SKY/WX    TMP DP  RH WIND       PRES   REMARKS
GOSHEN         FLURRIES  35  33  92 W13       29.46R WCI  26
LOGANSPORT +   DRIZZLE   36  34  93 W12       29.54
PERU/GRISSOM   LGT RAIN  37  37 100 W20       29.51R
ROCHESTER +    LGT RAIN  37  37 100 W10G17    29.50R
SOUTH BEND     LGT RAIN  36  33  89 W10       29.48R
WARSAW +       LGT RAIN  34  34 100 W10G22    29.47R WCI  26

$$

INZ006>009-017-018-025>027-250000-
NORTHEAST INDIANA

CITY           SKY/WX    TMP DP  RH WIND       PRES   REMARKS
ANGOLA *+      CLOUDY    36  34  93 W8        29.40R
AUBURN +       DRIZZLE   37  34  87 W15       29.43R
FORT WAYNE     LGT RAIN  38  35  89 W24G33    29.46R
HUNTINGTON +   CLOUDY    37  36  96 W17G24    29.48R

$$

INZ028-029-035-036-043>045-051>053-250000-
WEST CENTRAL INDIANA

CITY           SKY/WX    TMP DP  RH WIND       PRES   REMARKS
GREENCASTLE +  CLOUDY    36  32  87 SW7       29.60R FOG
LAFAYETTE      LGT RAIN  35  34  96 W9        29.56R WCI  28
TERRE HAUTE    CLOUDY    38  35  89 W12       29.63R

$$

INZ030>032-037>040-046>048-054>057-064-065-250000-
CENTRAL INDIANA

CITY           SKY/WX    TMP DP  RH WIND       PRES   REMARKS
CP ATTERBURY + CLOUDY    39  36  87 MISG      29.60R
COLUMBUS       CLOUDY    39  37  93 W15       29.60R
FRANKFORT +    LGT RAIN  36  36 100 SW12      29.57R
GREENWOOD *+   CLOUDY    37  32  81 W12       29.59
INDIANAPOLIS   FLURRIES  35  34  96 W14       29.58R WCI  26
-EAGLE CREEK   MIX PCPN  36  34  92 W7        29.57R
KOKOMO *+      CLOUDY    37  34  87 W21G28    29.53R
MARION +       CLOUDY    37  36  95 W21G28    29.52R FOG
MT COMFORT *+  CLOUDY    37  37 100 W22G31    29.57R
SHELBYVILLE    CLOUDY    41  36  82 W18       29.57R
ZIONSVILLE +   LGT RAIN  37  33  87 W13       29.56R

$$

INZ033-034-041-042-049-050-058-059-250000-
EAST CENTRAL INDIANA

CITY           SKY/WX    TMP DP  RH WIND       PRES   REMARKS
MUNCIE         LGT RAIN  38  36  92 W20G31    29.51R

$$

INZ060-061-067>069-081>083-085>088-250000-
SOUTHWEST INDIANA

CITY           SKY/WX    TMP DP  RH WIND       PRES   REMARKS
EVANSVILLE     CLOUDY    42  36  79 W10       29.73R
HUNTINGBURG *+ CLOUDY    39  36  87 W14G24    29.70R
WASHINGTON +   CLOUDY    39  34  81 W12       29.67R

$$

INZ062-063-066-070>080-084-089>092-250000-
SOUTH CENTRAL AND SOUTHEAST INDIANA

CITY           SKY/WX    TMP DP  RH WIND       PRES   REMARKS
BLOOMINGTON    CLOUDY    38  35  89 W9G17     29.62R
SEYMOUR +      CLOUDY    43  37  81 W20G25    29.63

$$



USA.gov is the U.S. government's official web portal to all federal, state and local government web resources and services.